Location: Unspecified
(0.0000°N, 0.0000°E)
Time: 04:25:37
(UTC+00:00)

Envisat - Pass Details

Date: 11 August 2021
Orbit: 764 x 766 km, 98.2° (Epoch: 24 September)

Event Time Altitude Azimuth Distance (km) Brightness Sun altitude
Rises 05:23:08 0° 356° (N) 3,213 6.4 -10.2°
Reaches altitude 10° 05:25:36 10° 347° (NNW) 2,290 5.5 -9.6°
Maximum altitude 05:30:10 35° 282° (WNW) 1,205 3.6 -8.5°
Drops below altitude 10° 05:34:47 10° 217° (SW) 2,298 5.0 -7.4°
Sets 05:37:15 0° 208° (SSW) 3,226 5.8 -6.8°
